Regional Weather Roundup
Issued by NWS

Home | Current Version | Previous Version | Graphics & Text | Print | Product List | Glossary On
Versions: 1 2 3 4 5 6 7 8 9 10 11 12 13 14 15 16 17 18 19 20 21 22 23 24 25 26 27 28 29 30 31 32 33 34 35 36 37 38 39 40 41 42 43 44 45 46 47 48 49 50
000
ASUS43 KDMX 240601
RWRIA

WEATHER ROUNDUP FOR IOWA
NATIONAL WEATHER SERVICE DES MOINES IA
1200 AM CST FRI FEB 24 2017

NOTE: "FAIR" INDICATES FEW OR NO CLOUDS BELOW 12,000 FEET WITH NO
SIGNIFICANT WEATHER AND/OR OBSTRUCTIONS TO VISIBILITY.

* - THESE STATIONS ARE NOT NWS STATIONS...THUS NOT UNDER NWS
QUALITY CONTROL.  THEY ALSO DO NOT REPORT WEATHER SUCH
AS PRECIPITATION OR FOG.

IAZ001>003-012>014-020>022-031>034-043>046-240700-
   NORTHWEST IOWA

CITY           SKY/WX    TMP DP  RH WIND       PRES   REMARKS
CARROLL *      LGT RAIN  34  34 100 NE28G36   29.60R WCI  20
CHEROKEE *     LGT SNOW  30  30 100 NE23G36   29.70F VSB 3/4 WCI  16
DENISON *      SNOW      32  32 100 NE21G31   29.61R VSB 1/2 WCI  20
LE MARS *      SNOW      28  28 100 N17G25    29.76R VSB 1/4 WCI  16
ORANGE CITY *  CLOUDY    27  27 100 NE20G28   29.75R WCI  13
SHELDON *      LGT SNOW  27  27 100 N25       29.74F VSB 3/4 WCI  11
SIOUX CITY     SNOW      32  29  88 NE24G32   29.67F VSB 1/4 WCI  19
6HR MIN TEMP:  32; 6HR MAX TEMP:  34; 6HR PCP:  0.29;

SPENCER        FOG       28  26  92 N30G39    29.74R VSB 1/2 WCI  12
6HR MIN TEMP:  28; 6HR MAX TEMP:  31; 6HR PCP:  0.11;

STORM LAKE *   MIX PCPN  28  28 100 NE29G39   29.66R VSB 1/4 WCI  13
$$

IAZ055>058-069>071-079>083-090>094-240700-
   SOUTHWEST IOWA

CITY           SKY/WX    TMP DP  RH WIND       PRES   REMARKS
ATLANTIC *     RAIN      34  34 100 N13       29.63R WCI  25
CLARINDA *     CLOUDY    37  37 100 N23       29.55F WCI  26
COUNCIL BLFS * LGT SNOW  32  32 100 N21       29.59F WCI  20
CRESTON *      CLOUDY    39  39 100 N12G28    29.49R FOG     WCI  32
HARLAN  *      LGT SNOW  34  34 100 N10G20    29.67R WCI  26
RED OAK *      HVY RAIN  34  34 100 N16       29.58F WCI  23
SHENANDOAH *   LGT RAIN  36  34  93 N21G30    29.54F WCI  24
$$

IAZ047>049-059>061-072>074-084-240700-
   CENTRAL IOWA

CITY           SKY/WX    TMP DP  RH WIND       PRES   REMARKS
AMES           LGT RAIN  36  36 100 NE21G33   29.51F FOG     WCI  25
6HR MIN TEMP:  36; 6HR MAX TEMP:  41; 6HR PCP:  0.15;

ANKENY *       CLOUDY    39  37  93 NE20G33   29.48F FOG     WCI  30
BOONE *        CLOUDY    34  34 100 NE33G44   29.46F FOG     WCI  19
CHARITON *     FOG       41  41 100 NE18G28   29.41F VSB 1/4
DES MOINES     LGT RAIN  41  39  93 NE18G31   29.47F FOG
6HR MIN TEMP:  41; 6HR MAX TEMP:  44; 6HR PCP:  0.09;

GRINNELL*      LGT RAIN  38  37  96 NE24G36   29.51F WCI  27
KNOXVILLE *    CLOUDY    41  39  93 NE21      29.44F FOG
MARSHALLTOWN   CLOUDY    36  35  96 NE23G32   29.54F FOG     WCI  24
6HR MIN TEMP:  36; 6HR MAX TEMP:  41; 6HR PCP:  0.14;

NEWTON *       CLOUDY    39  37  93 NE31G38   29.48F FOG     WCI  27
PELLA *        CLOUDY    39  38  97 E16G29    29.49F FOG     WCI  30
PERRY *        LGT RAIN  35  34  96 N16G32    29.52F WCI  25
$$

IAZ004>006-015-016-023>025-035-036-240700-
   NORTH CENTRAL IOWA

CITY           SKY/WX    TMP DP  RH WIND       PRES   REMARKS
ALGONA *       SNOW      32  32 100 N37G48    29.66F VSB 1/4 WCI  16
CLARION *      CLOUDY    32  32 100 NE36G45   29.57F FOG     WCI  16
ESTHERVILLE    FOG       26  26 100 N28G33    29.73F VSB 3/4 WCI  10
6HR MIN TEMP:  26; 6HR MAX TEMP:  30; 6HR PCP:  0.04;

FORT DODGE *   CLOUDY    32  28  86 NE25G38   29.59F WCI  19
MASON CITY     LGT SNOW  32  32 100 NE32G41   29.68F VSB 3/4 WCI  17
6HR MIN TEMP:  32; 6HR MAX TEMP:  35; 6HR PCP:  0.30;

FOREST CITY *  LGT SNOW  32  32 100 NE20G36   29.68F VSB 1   WCI  20
WEBSTER CITY * LGT RAIN  34  32  93 NE25G48   29.55F WCI  21
IOWA FALLS *   LGT RAIN  34  33  96 NE23G33   29.59F WCI  22
$$

IAZ007>011-017>019-026>030-037>042-050>054-066-240700-
   NORTHEAST IOWA

CITY           SKY/WX    TMP DP  RH WIND       PRES   REMARKS
CEDAR RAPIDS   CLOUDY    37  37 100 NE16G29   29.53F WCI  28
6HR MIN TEMP:  37; 6HR MAX TEMP:  42; 6HR PCP:  0.08;

CHARLES CITY * LGT RAIN  34  34 100 NE23G29   29.67F WCI  22
CLINTON *      LGT RAIN  36  34  92 E25G31    29.56F WCI  24
DECORAH *      MIX PCPN  32  32 100 NE9G15    29.70F WCI  24
DUBUQUE        CLOUDY    34  33  96 NE23G31   29.59F WCI  22
6HR MIN TEMP:  34; 6HR MAX TEMP:  41; 6HR PCP:  0.19;

MONTICELLO *   LGT RAIN  36  34  93 NE15G24   29.61R WCI  26
OELWEIN *      MIX PCPN  34  34 100 NE25G33   29.61F WCI  21
WATERLOO       MIX PCPN  35  32  88 NE23G31   29.61F FOG     WCI  23
6HR MIN TEMP:  35; 6HR MAX TEMP:  41; 6HR PCP:  0.26;

$$

IAZ064-065-067-068-078-240700-
   EAST CENTRAL IOWA

CITY           SKY/WX    TMP DP  RH WIND       PRES   REMARKS
DAVENPORT      CLOUDY    37  35  92 NE18G26   29.57F WCI  27
6HR MIN TEMP:  37; 6HR MAX TEMP:  44; 6HR PCP:  0.14;

IOWA CITY      CLOUDY    39  35  86 E17G28    29.55F WCI  30
6HR MIN TEMP:  39; 6HR MAX TEMP:  46; 6HR PCP:  0.04;

MUSCATINE *    CLOUDY    39  37  93 E15G22    29.53F WCI  31
QUAD CITIES    CLOUDY    41  36  82 E17       29.56F
6HR MIN TEMP:  41; 6HR MAX TEMP:  48; 6HR PCP:  0.01;

$$

IAZ062-063-075>077-085>089-095>099-240700-
   SOUTHEAST IOWA

CITY           SKY/WX    TMP DP  RH WIND       PRES   REMARKS
BURLINGTON     CLOUDY    46  44  93 E18G24    29.47F
6HR MIN TEMP:  45; 6HR MAX TEMP:  50;

FAIRFIELD *    CLOUDY    41  41 100 NE17      29.47S FOG
KEOKUK *       CLOUDY    46  46 100 E12G17    29.44F
OTTUMWA        CLOUDY    41  41 100 NE21G28   29.46F FOG
6HR MIN TEMP:  41; 6HR MAX TEMP:  47; 6HR PCP:  0.01;

WASHINGTON *   CLOUDY    39  39 100 NE24      29.50F WCI  28
$$

ABBREVIATIONS USED IN REMARKS
   TC - TEMPERATURES IN CELSIUS
  WCI - WIND CHILL INDEX
   HX - HEAT INDEX
  VSB - VISIBILITY
$$





USA.gov is the U.S. government's official web portal to all federal, state and local government web resources and services.